Miscellaneous Local Product
Issued by NWS Hastings, NE

Home | Current Version | Previous Version | Text Only | Print | Product List | Glossary Off
Versions: 1 2 3 4 5 6 7 8 9 10 11 12 13 14 15 16 17 18 19 20 21 22 23 24 25 26 27 28 29 30 31 32 33 34 35 36 37 38 39 40 41 42 43 44 45 46 47 48 49 50

000
AXUS43 KGID 292302
MISGRI

GID CWA HOURLY WEATHER ROUNDUP
NATIONAL WEATHER SERVICE HASTINGS NE
600 PM CDT MON AUG 29 2016

NOTE: "FAIR" INDICATES FEW OR NO CLOUDS BELOW 12,000 FEET WITH NO
SIGNIFICANT WEATHER AND/OR OBSTRUCTIONS TO VISIBILITY.

...SOUTH CENTRAL NEBRASKA...

CITY           SKY/WX    TMP DP  RH WIND       PRES   REMARKS
GRAND ISLAND   CLOUDY    81  66  60 S18G28    30.17R
HASTINGS       CLOUDY    74  63  68 S3        30.19R
KEARNEY        MOSUNNY   81  66  61 S7        30.16S
ORD            MOSUNNY   82  64  54 S7        30.15S
YORK           CLOUDY    73  68  83 CALM      30.17R
AURORA         DRIZZLE   74  68  82 SE3       30.18R
LEXINGTON      CLOUDY    78  66  66 SW6       30.19R
HOLDREGE       PTSUNNY   78  67  68 S3        30.19R
HEBRON         CLOUDY    73  67  79 W5        30.15R

...NEBRASKA PANHANDLE...

CITY           SKY/WX    TMP DP  RH WIND       PRES   REMARKS
CHADRON        CLOUDY    87  52  29 E12       30.19S
ALLIANCE       LGT RAIN  70  56  61 SE18G32   30.24R
SCOTTSBLUFF    CLOUDY    85  55  35 SE10      30.22S
SIDNEY         CLOUDY    68  60  75 S8        30.27R

...WESTERN AND NORTH CENTRAL NEBRASKA...

CITY           SKY/WX    TMP DP  RH WIND       PRES   REMARKS
VALENTINE      CLOUDY    84  60  44 S13       30.16S
AINSWORTH      CLOUDY    82  63  52 S7        30.18S
ONEILL         CLOUDY    84  59  41 SW3       30.16S
BROKEN BOW     MOSUNNY   79  66  64 VRB5      30.18R
IMPERIAL       CLOUDY    77  61  57 S8        30.22R
NORTH PLATTE   CLOUDY    79  64  60 S7        30.20R
MCCOOK         CLOUDY    78  63  59 SE5       30.20R

...EASTERN NEBRASKA...

CITY           SKY/WX    TMP DP  RH WIND       PRES   REMARKS
NORFOLK        MOSUNNY   84  62  47 S6        30.14S
SO SIOUX CITY  MOSUNNY   83  71  67 E6        30.12F
TEKAMAH        CLOUDY    83  74  74 CALM      30.12S
COLUMBUS       CLOUDY    70  61  73 S10G16    30.17S
ALBION         MOSUNNY   82  66  57 SE3       30.16R
OMAHA EPPLEY   HVY RAIN  75  69  81 E13       30.14R
OFFUTT AFB     CLOUDY    82  72  71 E18G28    30.14R
MILLARD        CLOUDY    81  74  79 CALM      30.12S
LINCOLN        TSTM      74  68  81 N12       30.16R
NEBRASKA CITY  LGT RAIN  81  72  75 CALM      30.12R
BEATRICE       CLOUDY    73  68  87 SE12      30.14S
FALLS CITY     MOSUNNY   86  71  60 S7        30.10R HX  91

...NORTHERN KANSAS...

CITY           SKY/WX    TMP DP  RH WIND       PRES   REMARKS
GOODLAND       MOSUNNY   74  60  61 S10       30.22F
HILL CITY      CLOUDY    75  70  84 SW3       30.18F
NORTON         CLOUDY    75  64  69 CALM      30.18S
SMITH CENTER   CLOUDY    70  64  83 E20       30.20R
BELOIT           N/A     68  64  88 N6        30.15F
HAYS           CLOUDY    68  59  73 E10       30.19F
RUSSELL        HVY RAIN  68  67  96 SW5       30.18S FOG
CONCORDIA      CLOUDY    72  67  84 W12       30.15F
SALINA         CLOUDY    77  72  84 S8        30.15R
TOPEKA         SUNNY     89  67  47 SE8       30.08F HX  92



USA.gov is the U.S. government's official web portal to all federal, state and local government web resources and services.